Location: *
(48.5064°N, 111.8586°W)
Time: 10:12:46
(UTC+00:00)

Daily predictions for brighter satellites

Satellite Brightness Start Highest point End
(mag) Time Altitude Azimuth Time Altitude Azimuth Time Altitude Azimuth
STARLINK-1290 2.4 12:01:28 25° SW 12:02:45 70° SSE 12:05:15 10° ENE
STARLINK-1298 2.4 12:01:29 25° SW 12:02:46 70° SSE 12:05:15 10° ENE
STARLINK-1293 2.4 12:01:46 24° SW 12:03:03 71° SSE 12:05:33 10° ENE
STARLINK-1297 2.4 12:01:54 24° SW 12:03:13 71° SSE 12:05:43 10° ENE
STARLINK-1268 2.4 12:02:14 24° SW 12:03:33 71° SSE 12:06:03 10° ENE
STARLINK-1299 2.3 12:02:35 24° SW 12:03:54 72° SSE 12:06:24 10° ENE
Cosmos 372 Rocket 4.0 12:00:10 10° SSW 12:05:26 89° ESE 12:10:42 10° NNE
STARLINK-1311 2.3 12:04:13 22° SW 12:05:39 75° SSE 12:08:12 10° ENE
Okean 1-7 3.2 12:02:11 10° SSW 12:06:25 50° WNW 12:10:42 10° N
Meteor 1-31 Rocket 3.4 12:02:46 10° NNE 12:06:41 60° E 12:10:34 10° S
STARLINK-48 3.7 12:04:18 17° W 12:07:10 62° NNW 12:11:03 10° ENE
STARLINK-1025 4.5 12:04:32 11° SW 12:08:17 44° SE 12:12:14 10° ENE
STARLINK-41 3.0 12:09:58 17° WSW 12:12:15 69° NNW 12:15:26 10° ENE
Cosmos 1980 3.8 12:07:28 10° NW 12:12:57 51° WSW 12:18:23 10° S
STARLINK-1017 4.4 12:09:19 10° SW 12:13:15 47° SE 12:17:14 10° ENE
Lacrosse 5 rocket 1.4 12:10:59 15° WSW 12:14:00 61° NNW 12:18:00 10° NE
Cosmos 468 4.5 12:09:21 10° NNW 12:14:41 75° WSW 12:20:00 10° SSE
ADEOS II 4.1 12:15:31 10° NW 12:16:52 11° NW 12:18:13 10° WNW
STARLINK-55 3.3 12:16:12 14° W 12:18:48 54° NNW 12:21:58 10° ENE
STARLINK-1255 2.3 12:18:38 15° WSW 12:20:38 82° NNW 12:23:11 10° ENE
ARIANE 5 R/B 4.4 12:18:11 10° NNW 12:20:38 14° NW 12:23:05 10° W
STARLINK-28 3.4 12:18:52 13° W 12:21:36 50° NNW 12:24:45 10° ENE
STARLINK-81 4.2 12:18:17 10° SW 12:22:12 52° SE 12:26:08 10° ENE
STARLINK-1306 2.4 12:21:42 13° WSW 12:23:57 78° NNW 12:26:38 10° ENE
STARLINK-54 4.0 12:20:05 10° SW 12:24:03 58° SSE 12:28:00 10° ENE
BREEZE M DEB (TANK) 3.1 12:22:20 10° SW 12:24:32 48° SSE 12:29:07 10° ENE
Starlink placeholder 1.8 12:23:22 15° WSW 12:24:50 61° NNW 12:26:48 10° ENE
EP 1 4.3 12:22:06 10° SW 12:24:53 67° NW 12:27:28 10° NE
Cosmos 2333 Rocket 3.6 12:22:06 10° WNW 12:25:23 16° W 12:28:38 10° SW
STARLINK-77 4.1 12:21:35 10° SW 12:25:31 55° SSE 12:29:28 10° ENE
STARLINK-33 3.4 12:22:45 12° W 12:25:38 51° NNW 12:28:48 10° ENE
CZ-4B R/B 3.9 12:21:53 10° NNE 12:26:06 85° WNW 12:30:04 10° SSW
SL-16 R/B 2.4 12:20:34 10° NNW 12:26:16 80° ENE 12:31:56 10° SSE
STARLINK-25 4.0 12:23:13 10° SW 12:27:10 56° SSE 12:31:08 10° ENE
Cosmos 1300 Rocket 3.5 12:22:51 10° NNW 12:27:12 82° W 12:31:30 10° S
CENTAUR R/B 4.1 12:22:40 10° S 12:28:01 36° ESE 12:34:09 10° NE
STARLINK-1048 4.1 12:24:04 10° SW 12:28:09 59° SSE 12:32:14 10° ENE
Spot 2 4.5 12:23:46 10° NNE 12:28:48 73° WNW 12:33:56 10° SSW
STARLINK-71 3.9 12:25:02 10° SW 12:29:01 63° SSE 12:33:00 10° ENE
STARLINK-1023 4.0 12:25:28 10° SW 12:29:38 65° SSE 12:33:48 10° ENE
STARLINK-66 3.5 12:26:58 10° W 12:30:02 49° NNW 12:33:11 10° ENE
SKYMED 2 3.8 12:25:43 10° SSE 12:30:03 77° ENE 12:34:25 10° N
STARLINK-52 2.9 12:27:07 10° WNW 12:30:22 88° NNE 12:33:35 10° ESE
STARLINK-79 4.0 12:26:29 10° SW 12:30:26 59° SSE 12:34:26 10° ENE
Cosmos 1975 3.5 12:27:53 10° NNW 12:31:28 32° W 12:35:02 10° SSW
Cosmos 2279 Rocket 4.4 12:25:53 10° NNW 12:31:36 39° W 12:37:19 10° SSW
Cosmos 2082 4.4 12:26:19 10° S 12:31:54 60° ESE 12:37:34 10° NE
Meteor 1-4 Rocket 3.9 12:28:33 10° S 12:32:08 45° E 12:35:46 10° NNE
STARLINK-78 3.9 12:28:10 10° SW 12:32:08 61° SSE 12:36:07 10° ENE
Okean 1 4.4 12:29:28 10° SW 12:32:50 26° WNW 12:36:12 10° NNW
STARLINK-1049 4.0 12:29:00 10° SW 12:33:05 63° SSE 12:37:12 10° ENE
SeaSat 1 3.7 12:29:50 10° SSW 12:33:17 19° WSW 12:36:45 10° WNW
Cosmos 1743 4.3 12:31:12 10° NW 12:33:47 17° W 12:36:23 10° SW
STARLINK-57 3.8 12:29:54 10° SW 12:33:52 65° SSE 12:37:53 10° ENE
Nadezhda 4 Rocket 4.1 12:28:52 10° S 12:35:10 82° W 12:41:34 10° N
STARLINK-49 3.9 12:31:26 10° SW 12:35:24 64° SSE 12:39:25 10° ENE
BREEZE-M DEB (TANK) 4.2 12:32:23 10° W 12:35:39 19° SW 12:38:35 10° S
Cosmos 1544 3.7 12:32:59 10° NNW 12:36:17 34° W 12:39:36 10° SSW
STARLINK-27 3.8 12:33:04 10° SW 12:37:03 66° SSE 12:41:03 10° ENE
STARLINK-1051 3.9 12:33:57 10° SW 12:38:03 67° SSE 12:42:11 10° ENE
SL-4 R/B 3.5 12:35:36 10° W 12:38:36 20° SW 12:41:44 10° S
STARLINK-74 3.8 12:34:42 10° SW 12:38:41 67° SSE 12:42:42 10° ENE
Cosmos 1515 4.3 12:35:22 10° SW 12:38:54 36° WNW 12:42:27 10° N
STARLINK-39 3.8 12:36:22 10° SW 12:40:21 69° SSE 12:44:23 10° ENE
